Wind_Speed
10 10 9 9 10 10 12 13 14 13 12 13 15 19 22 26 29 32 34 37 40 44 47 49 50 53 53 52 51 46 32 21 18 16 15 16 19 20 21 22 21 21 19 19
8 6 5 4 6 10 12 15 18 19 19 18 20 23 26 30 32 35 38 41 43 43 44 44 45 47 47 46 44 36 26 19 18 18 18 18 19 20 19 19 19 19 19 19
7 7 4 5 8 10 12 14 17 22 24 24 26 27 29 32 36 38 38 37 36 35 35 37 39 41 41 40 37 35 28 25 21 20 20 20 17 16 16 17 16 16 17 17
10 7 6 6 5 6 8 11 14 16 19 23 26 30 31 33 35 35 34 32 31 31 33 35 37 38 38 37 36 35 32 29 25 24 24 21 19 19 18 18 16 15 16 18
6 4 1 3 5 8 10 11 12 11 10 11 13 18 21 24 28 30 30 29 27 28 31 35 37 39 40 38 36 34 34 34 32 31 29 26 24 24 23 22 20 19 19 20
4 2 3 5 7 10 13 13 11 9 9 11 13 16 18 21 23 23 22 22 24 28 32 36 39 42 43 42 40 39 39 39 39 39 37 35 33 31 31 30 28 26 25 24
1 3 2 2 4 7 11 11 9 9 11 13 16 18 20 22 23 21 20 20 23 27 33 38 43 45 47 47 47 46 45 45 45 45 45 44 42 41 40 39 38 36 34 32
5 1 4 5 6 7 10 13 15 14 16 17 19 22 23 25 25 26 27 27 29 33 38 43 46 49 50 50 50 50 50 49 50 50 49 49 49 48 47 47 47 46 45 42
10 7 8 10 10 12 14 17 17 17 18 20 22 23 25 27 29 32 34 36 40 43 46 49 51 53 54 54 54 54 53 53 53 53 53 54 54 54 53 53 52 52 52 51
11 9 10 11 13 15 18 19 17 18 20 22 25 28 30 32 35 37 41 44 47 50 52 55 56 58 59 59 60 60 60 59 59 59 59 59 59 59 59 58 58 57 57 56
12 11 11 12 13 15 16 14 14 17 21 24 28 30 32 36 39 42 45 47 49 52 54 57 59 60 62 64 65 66 67 68 68 67 67 66 66 65 65 64 63 62 62 61
12 12 14 15 17 18 17 17 18 20 22 25 29 33 37 40 42 44 47 49 52 54 57 60 62 64 67 69 71 73 74 75 74 74 73 71 70 69 69 69 69 69 67 66
13 14 14 14 15 17 16 16 18 21 24 27 31 35 39 41 43 45 47 50 53 57 60 62 65 68 70 73 75 76 77 75 72 69 66 62 60 59 60 62 66 69 71 72
14 14 12 11 12 14 14 15 17 21 25 30 33 37 39 41 44 46 49 52 56 59 63 66 69 70 72 72 72 71 68 65 61 58 55 52 50 49 48 48 51 56 63 69
14 13 13 13 14 15 15 18 22 25 28 31 33 36 39 42 45 48 52 56 59 62 65 66 66 65 63 62 61 60 58 57 55 53 51 49 47 45 43 42 40 41 45 53
13 13 14 16 17 18 19 22 26 28 29 29 32 36 40 43 46 50 54 57 60 61 60 58 57 56 57 58 58 59 58 57 57 55 53 51 48 46 43 40 37 36 35 37
14 14 15 18 21 22 23 27 29 30 31 33 37 41 44 47 49 54 58 61 60 56 54 54 56 58 59 60 60 60 60 59 59 58 56 53 51 48 46 43 41 38 35 33
17 19 21 22 24 26 28 30 33 35 36 38 41 44 48 51 54 57 59 57 53 52 53 55 58 60 62 63 63 62 61 61 60 58 56 55 53 51 49 47 44 41 38 36
21 22 24 25 27 28 31 34 36 37 39 41 44 46 49 52 54 55 54 52 51 52 55 58 60 64 66 66 65 64 63 61 59 57 54 52 52 51 50 48 46 44 42 39
21 21 23 25 28 31 34 37 39 39 39 41 45 48 52 55 57 56 52 49 49 52 56 59 63 65 66 64 62 60 58 56 53 50 48 47 47 47 48 47 46 45 44 42
18 21 24 27 30 33 37 40 40 39 40 43 48 53 56 57 59 56 50 48 50 53 57 61 64 65 64 61 58 56 54 51 47 44 42 41 42 43 44 45 43 43 43 42
20 24 26 29 32 35 38 40 41 41 43 46 51 54 55 56 56 52 48 48 51 54 58 61 64 65 63 60 56 53 50 46 41 37 35 35 35 37 38 40 40 40 40 40
21 24 27 29 32 35 38 42 44 44 45 47 51 53 53 55 55 49 46 48 51 54 58 61 64 64 62 58 54 51 46 42 36 31 28 26 27 29 31 32 34 35 37 38
20 22 25 27 31 35 39 41 42 42 43 46 51 52 52 54 53 48 45 47 50 54 57 61 64 64 60 56 53 51 47 42 35 30 26 22 20 21 23 26 27 29 31 33
19 21 23 26 30 34 36 38 40 40 42 46 50 51 52 54 52 47 45 47 50 53 56 60 63 63 59 54 52 51 48 43 36 29 25 20 16 14 15 17 20 22 25 28
19 22 24 28 31 34 35 38 40 41 43 47 51 51 51 53 52 47 45 46 49 51 54 58 61 62 58 53 50 51 50 47 40 32 25 18 13 9 9 11 14 17 20 24
Wind_Direction
254 247 247 259 260 258 248 236 228 224 226 231 231 236 239 241 249 256 263 267 271 275 280 286 293 298 304 305 305 304 298 270 264 271 277 278 285 286 289 292 292 287 282 281
240 243 250 260 272 269 258 247 236 229 232 234 233 235 238 241 248 257 264 270 274 277 282 287 294 300 306 309 311 314 315 304 304 310 310 305 298 286 282 287 287 280 272 270
243 249 249 276 286 277 265 262 250 240 238 244 248 250 253 255 259 263 268 273 278 283 287 292 295 299 307 312 315 319 320 324 324 326 326 322 309 291 279 280 283 279 270 264
242 239 263 287 312 317 302 279 275 261 252 251 257 264 266 268 269 270 270 273 279 286 291 293 295 299 305 311 316 318 318 321 320 319 319 315 306 294 281 275 275 275 271 264
265 242 242 66 42 4 339 319 304 292 281 278 283 285 286 286 281 273 268 269 277 285 288 291 294 299 304 308 311 313 314 314 314 312 311 306 298 291 285 278 273 271 269 265
281 196 88 58 32 356 336 328 322 309 305 301 300 305 311 311 299 286 275 271 276 281 286 293 297 301 305 307 308 309 308 308 307 305 303 300 295 290 286 283 277 271 267 264
256 225 225 338 7 3 337 331 325 313 318 318 313 311 314 320 321 313 310 308 299 294 295 297 300 303 306 307 308 307 305 304 303 300 298 295 290 286 283 280 277 273 270 266
54 279 274 306 325 339 325 326 328 334 339 332 324 321 321 320 321 322 321 318 311 306 304 303 303 304 305 305 305 304 303 301 298 296 294 291 288 284 280 276 273 271 269 267
27 3 334 334 332 328 320 319 316 322 328 327 326 325 321 320 321 319 318 315 311 309 307 307 306 305 305 304 303 301 299 296 294 292 290 287 284 281 278 275 272 269 266 264
6 0 341 333 323 316 314 311 303 309 319 323 323 324 322 322 321 319 317 315 313 312 311 309 308 308 307 305 303 301 299 296 294 291 289 286 283 280 277 273 270 267 265 262
345 339 330 324 313 308 313 320 311 309 315 320 322 321 321 320 319 319 318 316 314 313 311 310 309 308 307 305 303 301 300 298 295 293 289 286 282 278 275 272 269 266 263 261
337 330 322 316 309 307 313 319 319 317 317 316 316 316 319 320 320 320 318 316 315 313 312 311 310 308 306 304 302 301 299 297 296 294 291 288 285 281 276 271 267 263 261 259
329 321 315 308 303 308 317 320 318 315 313 312 313 316 319 320 320 320 319 317 315 314 313 311 309 307 305 303 301 300 299 297 296 294 293 291 289 286 281 275 269 263 258 256
340 335 329 321 320 326 330 325 320 316 315 316 319 321 322 323 323 322 320 319 317 316 315 313 311 308 306 303 302 300 299 297 295 293 292 291 290 289 287 283 275 266 259 254
354 355 352 348 347 345 337 328 324 323 324 325 325 325 325 326 325 324 323 321 319 318 316 313 311 310 309 307 305 302 299 297 294 292 291 290 289 288 287 286 284 277 266 258
356 2 360 354 351 349 343 337 331 328 327 327 328 328 329 328 327 325 323 321 320 319 318 318 317 315 313 310 306 302 299 296 293 290 288 286 284 281 280 280 278 276 272 265
354 1 1 354 348 346 343 337 333 332 333 334 334 333 331 330 330 329 327 325 325 324 324 322 320 317 314 311 307 302 297 293 290 287 284 282 278 275 273 272 272 270 267 264
354 357 355 349 343 345 341 339 338 337 337 337 336 335 333 333 333 332 328 326 326 327 327 326 324 322 318 313 308 303 298 294 290 285 281 278 275 271 269 267 266 265 263 260
352 350 345 341 340 339 341 342 341 339 339 337 336 336 334 333 334 333 329 329 330 331 330 329 327 325 322 317 312 308 303 298 292 286 280 276 273 269 266 263 261 259 258 257
342 337 332 333 335 339 341 342 342 340 339 337 336 335 336 337 337 336 333 332 333 333 333 333 331 329 326 322 318 315 311 306 299 291 283 275 270 267 264 261 258 255 254 253
328 325 326 331 336 338 340 341 340 339 339 338 339 339 340 340 337 335 333 334 335 337 338 338 336 334 332 329 325 321 317 312 306 297 287 278 271 266 262 258 255 252 250 249
326 324 328 332 335 337 337 338 341 341 341 341 341 339 339 339 337 336 335 337 339 341 342 342 342 340 338 335 332 329 325 321 314 305 294 283 274 267 262 258 253 250 247 245
325 324 326 329 330 332 338 342 343 342 342 340 339 338 340 340 339 337 336 338 341 343 345 346 347 346 344 342 340 338 336 332 326 317 307 292 279 269 261 257 252 247 244 241
321 318 321 323 328 337 341 341 340 339 338 337 338 339 341 342 341 338 338 341 343 346 348 349 351 351 351 351 351 350 347 343 338 331 321 305 289 275 264 254 248 243 239 235
317 315 320 327 334 338 338 338 338 338 338 338 340 342 343 344 343 340 340 343 345 348 351 352 354 356 357 358 359 359 357 353 347 339 330 320 302 284 266 251 241 235 230 227
317 320 326 332 335 336 337 337 339 339 339 340 342 344 345 345 345 343 342 345 348 351 353 355 358 360 1 2 3 5 6 4 0 353 344 334 316 292 266 244 231 224 219 217
Height
5876 5877 5877 5877 5877 5877 5876 5875 5875 5875 5875 5875 5874 5873 5873 5873 5873 5872 5871 5869 5866 5863 5859 5856 5851 5844 5837 5828 5822 5816 5809 5807 5809 5809 5811 5814 5815 5817 5818 5818 5817 5816 5816 5816
5873 5873 5873 5874 5874 5873 5873 5872 5872 5872 5872 5872 5870 5869 5870 5869 5869 5868 5867 5864 5861 5858 5856 5853 5848 5841 5835 5827 5821 5814 5809 5807 5806 5806 5807 5808 5808 5810 5812 5812 5811 5810 5810 5810
5869 5870 5870 5870 5870 5870 5869 5869 5868 5868 5868 5868 5867 5867 5866 5865 5864 5863 5861 5859 5855 5853 5850 5847 5843 5837 5832 5825 5818 5814 5810 5806 5804 5803 5803 5803 5803 5804 5806 5806 5805 5804 5804 5803
5867 5868 5869 5868 5868 5867 5867 5866 5864 5864 5864 5864 5865 5863 5861 5859 5858 5856 5854 5852 5849 5846 5843 5840 5836 5831 5826 5821 5814 5809 5804 5802 5800 5799 5798 5798 5799 5800 5800 5800 5799 5798 5798 5797
5868 5868 5867 5867 5866 5866 5864 5863 5862 5861 5860 5861 5860 5857 5855 5853 5851 5849 5846 5845 5843 5840 5837 5833 5829 5824 5820 5815 5810 5805 5801 5798 5795 5794 5793 5793 5793 5793 5792 5792 5791 5791 5791 5790
5868 5868 5867 5866 5865 5864 5863 5862 5860 5859 5858 5858 5855 5853 5851 5848 5845 5842 5840 5839 5836 5833 5829 5826 5821 5816 5811 5807 5803 5799 5796 5793 5790 5787 5786 5786 5785 5785 5784 5783 5783 5782 5782 5782
5867 5867 5867 5865 5863 5863 5862 5861 5859 5857 5856 5854 5851 5849 5848 5844 5841 5838 5835 5833 5829 5826 5822 5818 5812 5807 5801 5796 5793 5790 5787 5785 5782 5779 5778 5777 5776 5775 5774 5773 5772 5771 5771 5772
5867 5867 5865 5863 5862 5861 5860 5859 5857 5855 5852 5850 5847 5844 5843 5839 5836 5833 5830 5826 5822 5818 5814 5808 5803 5797 5792 5787 5782 5779 5776 5773 5770 5768 5766 5764 5763 5762 5761 5760 5760 5759 5759 5759
5867 5866 5864 5862 5861 5860 5859 5858 5855 5853 5850 5847 5843 5841 5837 5832 5829 5825 5821 5817 5812 5807 5802 5797 5791 5785 5779 5774 5770 5766 5762 5758 5755 5752 5749 5747 5745 5744 5744 5743 5743 5743 5743 5744
5866 5865 5864 5862 5861 5859 5857 5855 5853 5850 5847 5844 5840 5836 5832 5827 5822 5817 5812 5806 5801 5795 5789 5783 5776 5771 5765 5759 5753 5748 5744 5740 5737 5734 5731 5727 5725 5723 5723 5723 5723 5724 5725 5726
5865 5864 5863 5861 5859 5856 5855 5853 5849 5847 5844 5840 5836 5834 5828 5823 5818 5812 5806 5799 5793 5786 5779 5771 5764 5757 5750 5742 5735 5729 5723 5718 5713 5710 5707 5705 5702 5700 5699 5699 5699 5701 5703 5706
5865 5863 5861 5859 5856 5853 5852 5850 5847 5844 5840 5836 5832 5830 5823 5817 5812 5805 5798 5791 5783 5775 5768 5760 5752 5743 5734 5725 5717 5709 5702 5696 5690 5684 5680 5676 5674 5673 5672 5672 5673 5675 5678 5681
5863 5861 5859 5856 5855 5852 5849 5847 5843 5840 5836 5831 5827 5826 5817 5811 5805 5798 5791 5783 5774 5765 5757 5748 5738 5729 5719 5709 5700 5690 5682 5674 5668 5661 5656 5652 5648 5645 5643 5643 5644 5647 5650 5655
5861 5858 5855 5853 5850 5848 5845 5843 5840 5836 5832 5827 5822 5816 5810 5804 5797 5790 5781 5772 5763 5753 5743 5733 5723 5713 5703 5692 5682 5673 5664 5656 5649 5643 5638 5634 5630 5626 5623 5620 5619 5620 5622 5626
5860 5856 5852 5849 5847 5845 5843 5839 5836 5832 5827 5822 5816 5810 5803 5796 5788 5779 5770 5760 5750 5741 5731 5720 5708 5697 5686 5676 5666 5656 5648 5640 5633 5628 5623 5619 5614 5611 5608 5605 5603 5601 5601 5602
5859 5855 5852 5849 5847 5844 5841 5836 5832 5827 5822 5817 5811 5804 5797 5789 5781 5772 5761 5751 5740 5729 5717 5705 5693 5682 5672 5661 5651 5641 5632 5624 5617 5611 5607 5603 5599 5596 5594 5592 5590 5589 5588 5587
5857 5854 5851 5848 5844 5842 5838 5833 5826 5821 5815 5809 5802 5796 5787 5780 5771 5760 5747 5735 5724 5713 5702 5691 5680 5668 5657 5645 5634 5624 5614 5605 5597 5592 5587 5584 5581 5579 5578 5577 5577 5577 5577 5577
5854 5850 5847 5845 5843 5838 5836 5827 5820 5813 5807 5801 5794 5787 5778 5768 5759 5748 5735 5723 5712 5701 5690 5678 5666 5653 5640 5626 5613 5602 5592 5583 5575 5569 5565 5562 5560 5560 5560 5560 5561 5562 5563 5565
5850 5847 5844 5841 5837 5834 5829 5822 5815 5808 5801 5794 5786 5778 5770 5761 5752 5741 5725 5712 5700 5689 5678 5665 5651 5637 5621 5606 5591 5578 5568 5558 5550 5545 5541 5540 5538 5539 5540 5541 5544 5546 5548 5551
5847 5845 5842 5838 5834 5828 5824 5817 5809 5803 5796 5788 5780 5771 5761 5749 5738 5728 5714 5703 5692 5680 5668 5654 5639 5623 5605 5588 5572 5558 5546 5535 5526 5520 5517 5516 5516 5517 5519 5522 5525 5529 5532 5536
5847 5844 5839 5834 5829 5823 5817 5810 5805 5798 5791 5781 5771 5760 5749 5739 5729 5717 5705 5695 5684 5671 5658 5643 5627 5609 5590 5572 5557 5542 5529 5517 5507 5500 5497 5495 5496 5497 5499 5503 5507 5512 5516 5521
5844 5839 5834 5829 5823 5820 5812 5805 5798 5790 5781 5771 5762 5753 5744 5734 5722 5709 5697 5687 5676 5663 5650 5635 5617 5598 5579 5560 5544 5530 5515 5503 5493 5485 5481 5479 5478 5479 5482 5486 5491 5496 5501 5507
5839 5835 5830 5825 5821 5815 5806 5797 5789 5781 5774 5766 5758 5749 5739 5728 5715 5702 5691 5681 5669 5656 5642 5626 5609 5590 5571 5552 5535 5520 5506 5493 5483 5475 5470 5466 5465 5466 5468 5471 5475 5481 5487 5493
5835 5831 5826 5821 5815 5808 5800 5793 5787 5779 5772 5764 5754 5744 5733 5721 5708 5696 5685 5675 5663 5650 5636 5621 5603 5584 5565 5547 5530 5514 5500 5487 5477 5469 5463 5458 5456 5456 5457 5459 5464 5469 5475 5481
5831 5826 5822 5817 5811 5805 5799 5792 5785 5777 5768 5759 5750 5738 5726 5714 5702 5690 5679 5669 5658 5645 5631 5615 5598 5580 5561 5544 5528 5513 5497 5484 5473 5465 5458 5453 5450 5449 5450 5452 5455 5460 5466 5472
5825 5821 5817 5812 5807 5801 5795 5787 5780 5771 5763 5753 5743 5732 5721 5709 5696 5685 5674 5664 5653 5641 5628 5613 5596 5578 5560 5544 5529 5514 5499 5485 5472 5462 5455 5449 5447 5446 5446 5448 5451 5455 5460 5466